ASTRO-H (HITOMI) (41337 NORAD) Tracking and Keplerian Element Data

This shows tracking and keplerian element data for the satellite.

Feedback or suggestion? Click here.




ElementValue
Catalog41337
NameASTRO-H (HITOMI)
Epoch Orbit43341
Epoch Day12.41299479
Epoch Year2024
RAAN9.1189
Inclination31.0046
Eccentricity0.001098
Argument of Perigee15.35
Mean Anonmoly344.7468
Mean Motion15.02483131
Decay Rate4.038E-05
L11 41337U 16012A 24012.41299479 .00004038 00000+0 29053-3 0 9998
L22 41337 31.0046 9.1189 0010980 15.3500 344.7468 15.02483131433413



Live tracking and technical data element details for ASTRO-H (HITOMI) (NORAD 41337). ASTRO-H (HITOMI) can be tracked NOW for your location showing map with azimuth and elevation plus other details from your city location.







IsCatalogInMostPopularTable: catalog: 41337, numindb: 543
Update: records affected: 1



GetName: 41337 ASTRO-H (HITOMI)

Hit Count: updated at: Sun, 14 Apr 2024 23:45:42 GMT